Location: Boda
(47.1872°N, 9.5454°E)
Time: 09:47:30
(UTC+00:00)

Cosmos 1455 Rocket - Pass Details

Date: 14 May 2021
Orbit: 605 x 629 km, 82.5° (Epoch: 17 June)

Event Time Altitude Azimuth Distance (km) Brightness Sun altitude
Rises 01:37:29 0° 344° (NNW) 2,874 7.1 -17.1°
Reaches altitude 10° 01:39:48 10° 337° (NNW) 1,967 6.0 -16.9°
Maximum altitude 01:43:52 40° 268° (W) 897 3.6 -16.5°
Enters shadow 01:45:16 31° 225° (SW) 1,082 3.7 -16.3°
